Previsão horária em Al Khubar

Hoje, 15 Junho, Terça-feira

Tempo Temperatura Precipitação Vento Pressão Humidade
00:00 +38°C° 0 mm 7 m/s 746 mmHg 17%
01:00 +36°C° 0 mm 7 m/s 746 mmHg 17%
02:00 +35°C° 0 mm 6 m/s 746 mmHg 17%
03:00 +34°C° 0 mm 6 m/s 746 mmHg 17%
04:00 +35°C° 0 mm 6 m/s 746 mmHg 17%
05:00 +35°C° 0 mm 6 m/s 747 mmHg 18%
06:00 +35°C° 0 mm 6 m/s 747 mmHg 18%
07:00 +37°C° 0 mm 5 m/s 747 mmHg 16%
08:00 +41°C° 0 mm 5 m/s 747 mmHg 14%
09:00 +43°C° 0 mm 4 m/s 747 mmHg 12%
10:00 +45°C° 0 mm 4 m/s 747 mmHg 11%
11:00 +47°C° 0 mm 4 m/s 747 mmHg 9%
12:00 +49°C° 0 mm 4 m/s 746 mmHg 8%
13:00 +48°C° 0 mm 5 m/s 746 mmHg 9%
14:00 +48°C° 0 mm 5 m/s 746 mmHg 11%
15:00 +48°C° 0 mm 6 m/s 745 mmHg 12%
16:00 +46°C° 0 mm 5 m/s 745 mmHg 15%
17:00 +43°C° 0 mm 4 m/s 745 mmHg 18%
18:00 +40°C° 0 mm 3 m/s 745 mmHg 22%
19:00 +39°C° 0 mm 2 m/s 745 mmHg 22%
20:00 +37°C° 0 mm 2 m/s 745 mmHg 23%
21:00 +35°C° 0 mm 1 m/s 746 mmHg 23%
22:00 +36°C° 0 mm 2 m/s 745 mmHg 21%
23:00 +36°C° 0 mm 3 m/s 745 mmHg 18%

Amanhã, 16 Junho, Quarta-feira

Tempo Temperatura Precipitação Vento Pressão Humidade
00:00 +37°C° 0 mm 4 m/s 745 mmHg 16%
01:00 +37°C° 0 mm 5 m/s 745 mmHg 16%
02:00 +38°C° 0 mm 6 m/s 745 mmHg 16%
03:00 +38°C° 0 mm 7 m/s 745 mmHg 17%
04:00 +38°C° 0 mm 8 m/s 746 mmHg 18%
05:00 +38°C° 0 mm 9 m/s 746 mmHg 20%
06:00 +38°C° 0 mm 10 m/s 747 mmHg 22%
07:00 +40°C° 0 mm 10 m/s 747 mmHg 21%
08:00 +43°C° 0 mm 11 m/s 748 mmHg 19%
09:00 +44°C° 0 mm 12 m/s 748 mmHg 18%
10:00 +46°C° 0 mm 11 m/s 748 mmHg 17%
11:00 +47°C° 0 mm 11 m/s 748 mmHg 15%
12:00 +48°C° 0 mm 11 m/s 748 mmHg 14%
13:00 +48°C° 0 mm 10 m/s 748 mmHg 13%
14:00 +47°C° 0 mm 10 m/s 748 mmHg 13%
15:00 +47°C° 0 mm 9 m/s 747 mmHg 12%
16:00 +45°C° 0 mm 8 m/s 747 mmHg 13%
17:00 +44°C° 0 mm 7 m/s 747 mmHg 14%
18:00 +42°C° 0 mm 6 m/s 747 mmHg 15%
19:00 +41°C° 0 mm 6 m/s 748 mmHg 18%
20:00 +39°C° 0 mm 6 m/s 748 mmHg 21%
21:00 +38°C° 0 mm 6 m/s 748 mmHg 25%
22:00 +36°C° 0 mm 6 m/s 748 mmHg 22%
23:00 +36°C° 0 mm 7 m/s 748 mmHg 18%

Depois de amanhã, 17 Junho, Quinta-feira

Tempo Temperatura Precipitação Vento Pressão Humidade
00:00 +37°C° 0 mm 8 m/s 748 mmHg 15%
01:00 +37°C° 0 mm 8 m/s 748 mmHg 14%
02:00 +37°C° 0 mm 9 m/s 748 mmHg 13%
03:00 +35°C° 0 mm 9 m/s 748 mmHg 12%
04:00 +35°C° 0 mm 9 m/s 748 mmHg 14%
05:00 +35°C° 0 mm 9 m/s 748 mmHg 17%
06:00 +35°C° 0 mm 9 m/s 749 mmHg 19%
07:00 +38°C° 0 mm 9 m/s 749 mmHg 17%
08:00 +40°C° 0 mm 10 m/s 749 mmHg 15%
09:00 +43°C° 0 mm 11 m/s 749 mmHg 14%
10:00 +44°C° 0 mm 11 m/s 749 mmHg 12%
11:00 +47°C° 0 mm 11 m/s 749 mmHg 10%
12:00 +48°C° 0 mm 12 m/s 749 mmHg 7%
13:00 +48°C° 0 mm 11 m/s 749 mmHg 9%
14:00 +47°C° 0 mm 11 m/s 748 mmHg 10%
15:00 +47°C° 0 mm 10 m/s 748 mmHg 12%
16:00 +45°C° 0 mm 9 m/s 748 mmHg 13%
17:00 +44°C° 0 mm 8 m/s 748 mmHg 15%
18:00 +41°C° 0 mm 7 m/s 748 mmHg 17%
19:00 +40°C° 0 mm 7 m/s 748 mmHg 20%
20:00 +39°C° 0 mm 7 m/s 748 mmHg 23%
21:00 +38°C° 0 mm 7 m/s 748 mmHg 25%
22:00 +38°C° 0 mm 8 m/s 748 mmHg 21%
23:00 +38°C° 0 mm 9 m/s 748 mmHg 17%

18 Junho, Sexta-feira

Tempo Temperatura Precipitação Vento Pressão Humidade
00:00 +39°C° 0 mm 11 m/s 748 mmHg 13%
01:00 +38°C° 0 mm 10 m/s 748 mmHg 14%
02:00 +37°C° 0 mm 10 m/s 748 mmHg 15%
03:00 +36°C° 0 mm 10 m/s 748 mmHg 16%
04:00 +36°C° 0 mm 10 m/s 748 mmHg 16%
05:00 +34°C° 0 mm 9 m/s 748 mmHg 17%
06:00 +34°C° 0 mm 9 m/s 748 mmHg 17%
07:00 +37°C° 0 mm 9 m/s 748 mmHg 16%
08:00 +39°C° 0 mm 10 m/s 749 mmHg 14%
09:00 +42°C° 0 mm 10 m/s 749 mmHg 13%
10:00 +43°C° 0 mm 10 m/s 749 mmHg 12%
11:00 +44°C° 0 mm 10 m/s 748 mmHg 12%
12:00 +45°C° 0 mm 9 m/s 748 mmHg 11%
13:00 +45°C° 0 mm 9 m/s 748 mmHg 13%
14:00 +45°C° 0 mm 9 m/s 748 mmHg 14%
15:00 +45°C° 0 mm 8 m/s 747 mmHg 15%
16:00 +43°C° 0 mm 7 m/s 747 mmHg 18%
17:00 +41°C° 0 mm 6 m/s 747 mmHg 20%
18:00 +38°C° 0 mm 4 m/s 747 mmHg 22%
19:00 +37°C° 0 mm 4 m/s 748 mmHg 23%
20:00 +37°C° 0 mm 4 m/s 748 mmHg 24%
21:00 +36°C° 0 mm 3 m/s 748 mmHg 24%
22:00 +35°C° 0 mm 3 m/s 748 mmHg 23%
23:00 +35°C° 0 mm 3 m/s 748 mmHg 22%

19 Junho, Sábado

Tempo Temperatura Precipitação Vento Pressão Humidade
00:00 +35°C° 0 mm 3 m/s 748 mmHg 20%
01:00 +35°C° 0 mm 3 m/s 748 mmHg 20%
02:00 +34°C° 0 mm 4 m/s 748 mmHg 20%
03:00 +34°C° 0 mm 4 m/s 748 mmHg 20%
04:00 +34°C° 0 mm 4 m/s 748 mmHg 18%
05:00 +35°C° 0 mm 5 m/s 749 mmHg 17%
06:00 +35°C° 0 mm 5 m/s 749 mmHg 15%
07:00 +38°C° 0 mm 6 m/s 749 mmHg 15%
08:00 +41°C° 0 mm 6 m/s 749 mmHg 15%
09:00 +44°C° 0 mm 7 m/s 750 mmHg 15%
10:00 +45°C° 0 mm 7 m/s 749 mmHg 14%
11:00 +46°C° 0 mm 8 m/s 749 mmHg 14%
12:00 +48°C° 0 mm 8 m/s 749 mmHg 13%
13:00 +46°C° 0 mm 8 m/s 749 mmHg 14%
14:00 +46°C° 0 mm 8 m/s 749 mmHg 15%
15:00 +45°C° 0 mm 7 m/s 748 mmHg 16%
16:00 +42°C° 0 mm 6 m/s 749 mmHg 21%
17:00 +40°C° 0 mm 5 m/s 749 mmHg 26%
18:00 +38°C° 0 mm 4 m/s 749 mmHg 31%
19:00 +37°C° 0 mm 4 m/s 749 mmHg 33%
20:00 +36°C° 0 mm 3 m/s 749 mmHg 35%
21:00 +35°C° 0 mm 2 m/s 749 mmHg 37%
22:00 +35°C° 0 mm 3 m/s 749 mmHg 35%
23:00 +35°C° 0 mm 3 m/s 749 mmHg 33%

20 Junho, Domingo

Tempo Temperatura Precipitação Vento Pressão Humidade
00:00 +35°C° 0 mm 4 m/s 749 mmHg 32%
01:00 +34°C° 0 mm 3 m/s 749 mmHg 35%
02:00 +32°C° 0 mm 2 m/s 749 mmHg 37%
03:00 +32°C° 0 mm 1 m/s 749 mmHg 40%
04:00 +32°C° 0 mm 2 m/s 749 mmHg 35%
05:00 +34°C° 0 mm 3 m/s 750 mmHg 30%
06:00 +35°C° 0 mm 4 m/s 750 mmHg 26%
07:00 +38°C° 0 mm 4 m/s 750 mmHg 22%
08:00 +41°C° 0 mm 4 m/s 750 mmHg 19%
09:00 +45°C° 0 mm 5 m/s 750 mmHg 15%
10:00 +46°C° 0 mm 5 m/s 750 mmHg 16%
11:00 +46°C° 0 mm 5 m/s 750 mmHg 16%
12:00 +47°C° 0 mm 6 m/s 750 mmHg 17%
13:00 +46°C° 0 mm 5 m/s 749 mmHg 20%
14:00 +45°C° 0 mm 5 m/s 749 mmHg 23%
15:00 +43°C° 0 mm 4 m/s 749 mmHg 26%
16:00 +42°C° 0 mm 4 m/s 749 mmHg 31%
17:00 +40°C° 0 mm 4 m/s 749 mmHg 35%
18:00 +38°C° 0 mm 4 m/s 749 mmHg 39%
19:00 +38°C° 0 mm 4 m/s 749 mmHg 37%
20:00 +37°C° 0 mm 4 m/s 749 mmHg 34%
21:00 +37°C° 0 mm 4 m/s 749 mmHg 32%
22:00 +35°C° 0 mm 4 m/s 749 mmHg 43%
23:00 +34°C° 0 mm 3 m/s 749 mmHg 53%
Mostrar mais